Weather History for Mountain Home, ID

Change the Weather History Date:

Sunday, August 19, 2012

  Actual Average Record
Temperature  
Mean Temperature 80 °F 74 °F  
Max Temperature 94 °F 92 °F 105 °F (1953)
Min Temperature 66 °F 55 °F 30 °F (1916)
Degree Days  
Heating Degree Days 0 0  
Month to date heating degree days 0 0  
Cooling Degree Days 15 10  
Month to date cooling degree days 261 218  
Growing Degree Days 30 (Base 50)    
Moisture  
Dew Point 43 °F    
Average Humidity 29    
Maximum Humidity 47    
Minimum Humidity 14    
Precipitation  
Precipitation T in 0.01 in 0.25 in (1979)
Month to date precipitation T 0.08  
Sea Level Pressure  
Sea Level Pressure 29.88 in    
Wind  
Wind Speed 9 mph (NW)    
Max Wind Speed 29 mph    
Max Gust Speed 38 mph    
Visibility 10 miles    
Events Rain    
T = Trace of Precipitation, MM = Missing Value Source: NWS Daily Summary

Daily Weather History Graph

Daily Weather History Graph

Search for Another Location

Airport:

Trip Planner

Search our weather history database for the weather conditions in past years. The results will help you decide how hot, cold, wet, or windy it might be!

Date:

Astronomy

Aug. 19, 2012 Rise Set
Actual Time 6:54 AM MDT 8:38 PM MDT
Civil Twilight 6:24 AM MDT 9:08 PM MDT
Nautical Twilight 5:47 AM MDT 9:45 PM MDT
Astronomical Twilight 5:07 AM MDT 10:25 PM MDT
Moon 9:19 AM MDT (8/19) 9:23 PM MDT (8/19)
Length of Visible Light 14h 44m
Length of Day
13h 44m
Waxing Crescent, 5% of the Moon is Illuminated
Aug 19
Waxing Crescent
Aug 24
First Quarter
Aug 31
Full
Sep 8
Last Quarter
Sep 15
New

Hourly Weather History & Observations

Time (MDT) Temp. Dew Point Humidity Pressure Visibility Wind Dir Wind Speed Gust Speed Precip Events Conditions
12:55 AM 73.8 °F 36.3 °F 26% 29.84 in 10.0 mi NW 6.9 mph - N/A   Partly Cloudy
1:55 AM 71.2 °F 36.9 °F 28% 29.86 in 10.0 mi West 10.4 mph - N/A   Clear
2:55 AM 75.2 °F 35.4 °F 24% 29.86 in 10.0 mi NNW 9.2 mph - N/A   Mostly Cloudy
3:55 AM 76.6 °F 36.7 °F 24% 29.83 in 10.0 mi North 10.4 mph - N/A   Mostly Cloudy
4:55 AM 73.0 °F 37.6 °F 28% 29.86 in 10.0 mi WSW 6.9 mph - N/A   Overcast
5:55 AM 72.3 °F 39.7 °F 31% 29.86 in 10.0 mi WSW 4.6 mph - N/A   Mostly Cloudy
6:55 AM 72.5 °F 38.8 °F 29% 29.85 in 10.0 mi NNW 4.6 mph - N/A   Mostly Cloudy
7:55 AM 75.6 °F 37.6 °F 25% 29.84 in 10.0 mi NNE 6.9 mph - N/A   Mostly Cloudy
8:55 AM 76.3 °F 42.3 °F 30% 29.88 in 10.0 mi SSW 6.9 mph - N/A   Mostly Cloudy
9:55 AM 80.2 °F 39.2 °F 23% 29.88 in 10.0 mi SW 6.9 mph - N/A   Mostly Cloudy
10:55 AM 87.6 °F 35.8 °F 16% 29.88 in 10.0 mi NNW 8.1 mph - N/A   Clear
11:55 AM 89.4 °F 34.9 °F 14% 29.87 in 8.0 mi NNE 3.5 mph - N/A   Mostly Cloudy
12:55 PM 91.4 °F 38.3 °F 16% 29.87 in 10.0 mi WNW 4.6 mph - N/A   Mostly Cloudy
1:55 PM 82.9 °F 51.3 °F 33% 29.91 in 10.0 mi WSW 20.7 mph 29.9 mph N/A   Mostly Cloudy
2:55 PM 81.1 °F 49.3 °F 33% 29.92 in 10.0 mi West 19.6 mph - 0.00 in   Overcast
3:06 PM 80.6 °F 51.8 °F 37% 29.92 in 10.0 mi NW 11.5 mph - N/A Rain Light Rain
3:17 PM 80.6 °F 51.8 °F 37% 29.91 in 10.0 mi NW 5.8 mph - N/A Rain Light Rain
3:55 PM 86.7 °F 46.9 °F 25% 29.89 in 10.0 mi North 8.1 mph - 0.00 in   Mostly Cloudy
4:55 PM 89.4 °F 45.1 °F 21% 29.87 in 10.0 mi NNE 10.4 mph - N/A   Partly Cloudy
5:55 PM 82.4 °F 51.4 °F 34% 29.91 in 5.0 mi West 28.8 mph 38.0 mph N/A   Haze
6:55 PM 80.1 °F 50.9 °F 36% 29.89 in 10.0 mi NW 12.7 mph - N/A   Mostly Cloudy
7:55 PM 82.6 °F 47.1 °F 29% 29.88 in 10.0 mi NNW 11.5 mph - N/A   Overcast
8:55 PM 79.0 °F 49.6 °F 36% 29.89 in 10.0 mi NNE 4.6 mph - N/A   Partly Cloudy
9:55 PM 78.3 °F 48.9 °F 36% 29.91 in 10.0 mi Calm Calm - N/A   Scattered Clouds
10:55 PM 70.0 °F 48.9 °F 47% 29.91 in 10.0 mi WSW 5.8 mph - N/A   Clear
11:55 PM 69.3 °F 48.0 °F 47% 29.92 in 10.0 mi NW 6.9 mph - N/A   Clear